Preview of NWS' New Version of Forecast
This preview is not operational and should not be used for support decisions.

Regional Weather Roundup (RWR)

Issued by National Weather Service (NWS)

                            
000
ASUS43 KMKX 232100
RWRWI 

WISCONSIN REGIONAL WEATHER ROUNDUP
NATIONAL WEATHER SERVICE MILWAUKEE/SULLIVAN WI
300 PM CST SAT FEB 23 2019

NOTE: "FAIR" INDICATES FEW OR NO CLOUDS BELOW 12,000 FEET WITH NO
SIGNIFICANT WEATHER AND/OR OBSTRUCTIONS TO VISIBILITY.

WIZ001-002-006>008-014>016-023>028-232200-
NORTHWEST WISCONSIN
  
CITY           SKY/WX    TMP DP  RH WIND       PRES   REMARKS
SUPERIOR ARPT  CLOUDY    31  29  93 NE9       29.85F WCI  23          
ASHLAND        CLOUDY    30  29  96 N9        29.86F WCI  22          
HAYWARD        CLOUDY    32  27  81 SE5       29.81F HAZE    WCI  27  
SIREN          CLOUDY    32  27  84 CALM      29.83F FOG              
CUMBERLAND     CLOUDY    30  27  86 CALM      29.79F FOG              
RICE LAKE      CLOUDY    32  23  69 E5        29.81F HAZE    WCI  27  
CHETEK         CLOUDY    32  28  84 CALM      29.79F                  
LADYSMITH      CLOUDY    32  28  84 E5        29.80F WCI  28          
EAU CLAIRE     CLOUDY    32  28  85 NE5       29.79F FOG     WCI  27  
MENOMONIE      CLOUDY    28  26  89 NE3       29.80F FOG              
NEW RICHMOND   CLOUDY    32  28  86 NE5       29.79F FOG     WCI  27  
OSCEOLA        CLOUDY    31  30  96 N5        29.82F WCI  27          
$$
 
WIZ003>005-009-010-017-018-232200-
NORTH CENTRAL WISCONSIN
  
CITY           SKY/WX    TMP DP  RH WIND       PRES   REMARKS
MANITOWISH WTR NOT AVBL                                               
ARBOR VITAE    CLOUDY    32  30  93 SE7       29.79F FOG     WCI  25  
WOODRUFF       CLOUDY    32  30  93 SE7       29.79F FOG     WCI  25  
RHINELANDER    CLOUDY    31  27  85 E9        29.80F FOG     WCI  23  
EAGLE RIVER    MIX PCPN  29  28  94 SE5       29.82F WCI  24          
LAND O LAKES   MIX PCPN  30  28  92 SE7       29.83F WCI  23          
PHILLIPS       CLOUDY    30  28  92 SE7       29.79F WCI  23          
TOMAHAWK       CLOUDY    30  28  92 CALM      29.79F FOG              
MEDFORD        LGT RAIN  30  29  95 E6        29.77F WCI  24          
MERRILL        CLOUDY    31  29  90 SE7       29.80F FOG     WCI  25  
$$
 
WIZ029-030-035-036-043>047-232200-
CENTRAL WISCONSIN
  
CITY           SKY/WX    TMP DP  RH WIND       PRES   REMARKS
WAUSAU         CLOUDY    31  26  82 E10       29.77F HAZE    WCI  22  
MOSINEE        CLOUDY    30  28  93 E9        29.79F FOG     WCI  22  
MARSHFIELD     CLOUDY    31  29  92 E10       29.77F WCI  22          
STEVENS POINT  CLOUDY    30  28  90 E12       29.80F FOG     WCI  20  
WAUPACA        CLOUDY    36  29  75 E9        29.82F WCI  29          
WAUTOMA        CLOUDY    33  29  85 E7        29.80F WCI  27          
WISC RAPIDS    CLOUDY    33  26  75 E9        29.80S WCI  25          
CAMP DOUGLAS   NOT AVBL                                               
$$
 
WIZ011>013-019>022-031-037>040-048>050-232200-
NORTHEAST WISCONSIN
  
CITY           SKY/WX    TMP DP  RH WIND       PRES   REMARKS
ANTIGO         CLOUDY    29  26  88 E13       29.81F FOG     WCI  18  
SHAWANO        CLOUDY    37  28  69 E12       29.85F WCI  29          
OCONTO         CLOUDY    34  26  74 E8        29.87F WCI  27          
STURGEON BAY   NOT AVBL                                               
GREEN BAY      CLOUDY    36  27  69 E10       29.85F WCI  28          
MANITOWOC      CLOUDY    34  28  79 E7        29.85F WCI  28          
APPLETON       CLOUDY    34  27  75 E8        29.81F WCI  27          
CLINTONVILLE   CLOUDY    34  26  71 E9        29.84F WCI  27          
OSHKOSH        CLOUDY    33  28  81 E10       29.81F HAZE    WCI  25  
$$
 
WIZ032>034-041-042-053>061-232200-
SOUTHWEST WISCONSIN
  
CITY           SKY/WX    TMP DP  RH WIND       PRES   REMARKS
LA CROSSE      CLOUDY    35  32  88 E5        29.76F FOG     WCI  31  
SPARTA         CLOUDY    33  32  96 E6        29.78F FOG     WCI  27  
VIROQUA        CLOUDY    33  33 100 E10       29.73F VSB 1/2 WCI  25  
BOSCOBEL       FOG       35  33  92 VRB6      29.75F VSB 3/4 WCI  30  
PRAIRIE DU CHI CLOUDY    35  32  91 E7        29.73F FOG     WCI  29  
PLATTEVILLE    CLOUDY    34  34 100 E13       29.73F VSB 1/2 WCI  25  
$$

WIZ056-057-062-063-064-067-068-232200-
SOUTH CENTRAL WISCONSIN
  
CITY           SKY/WX    TMP DP  RH WIND       PRES   REMARKS
REEDSBURG      CLOUDY    32  32 100 E8        29.76F FOG     WCI  25  
BARABOO/DELLS  FOG       32  32  99 E8        29.76F VSB 1   WCI  25  
LONE ROCK      LGT RAIN  34  33  96 E9        29.76F FOG     WCI  27  
MINERAL POINT  FOG       34  34 100 E10       29.73F VSB 1   WCI  26  
MADISON        DRZL/FOG  33  31  92 E8        29.78F VSB 3/4 WCI  26  
MIDDLETON      CLOUDY    35  33  94 E7        29.77F VSB 3/4 WCI  29  
WATERTOWN      CLOUDY    32  32 100 E6        29.79S FOG     WCI  26  
MONROE         FOG       33  32  98 MISG      29.73F VSB<1/4          
JANESVILLE     FOG       36  36 100 E6        29.75F VSB 1   WCI  31  
$$
 
WIZ051-052-058>065-066-070>072-232200-
SOUTHEAST WISCONSIN
  
CITY           SKY/WX    TMP DP  RH WIND       PRES   REMARKS
MILWAUKEE      CLOUDY    34  31  88 E8        29.79F FOG     WCI  27  
WAUKESHA       FOG       30  30 100 E6        29.80F VSB 1   WCI  24  
MILWAUKEE/TIMM DRIZZLE   34  28  80 E6        29.81F FOG     WCI  29  
RACINE         CLOUDY    35  32  88 SE8       29.81F FOG     WCI  29  
KENOSHA        CLOUDY    36  34  92 SE8       29.78F FOG     WCI  30  
FOND DU LAC    CLOUDY    34  28  79 E9        29.80F WCI  27          
SHEBOYGAN      MIX PCPN  34  30  85 SE8       29.83F FOG     WCI  27  
WEST BEND      CLOUDY    32  32 100 E6        29.82F FOG     WCI  26  
JUNEAU         CLOUDY    32  31  96 E10       29.80F FOG     WCI  24  
$$

LSZ147-162-232200-
LAKE SUPERIOR
  
STATION/POSITION TIME  TEMP    WIND        PRES    WAVE
                       AIR SEA DIR/SP/G            HT/PER
                 (UTC) (F)     (DEG/KT/KT) (MB)    (FT/S)
DEVILS ISLAND    2000   30      50/ 13/ 14 1012.9F
SAXON HARBOR     2040   36     200/  3/  7 1011.2S
$$
 
LMZ867-665-643>646-232200-
LAKE MICHIGAN
  
STATION/POSITION TIME  TEMP    WIND        PRES    WAVE
                       AIR SEA DIR/SP/G            HT/PER
                 (UTC) (F)     (DEG/KT/KT) (MB)    (FT/S)
NORTHPORT PIER   2040   33      90/  8/ 11 1012.5F
KEWAUNEE LAKESHO 2030   33      60/  5/  7 1011.0F
SHEBOYGAN LAKESH 2000   34     110/  7/  8 1011.9F
PORT WASHINGTON  2040   35     130/  5/  7 1011.5F
MILWAUKEE LAKESH 2030   33     100/  2/  4   N/A
KENOSHA   LAKESH 2000   35     130/ 17/ 18 1009.5
$$

TC  - TEMPERATURE IN CELSIUS
VSB - VISIBILITY IN STATUTE MILES
WCI - WIND CHILL INDEX
HX  - HEAT INDEX